Vrsac, Serbia

1:26 PM CET on February 10, 2016 (GMT +0100)
Vrsac

Weather History for LYVR - September, 2013

Change the Weather History Date:

Wednesday, September 18, 2013

  Actual Average (LRTR) Record (LRTR)
Temperature  
Mean Temperature 54 °F -  
Max Temperature 64 °F 70 °F 97 °F (2015)
Min Temperature 44 °F 49 °F 44 °F (1997)
Degree Days  
Heating Degree Days 11    
Growing Degree Days 4 (Base 50)    
Moisture  
Dew Point 43 °F    
Average Humidity 64    
Maximum Humidity 93    
Minimum Humidity 31    
Precipitation  
Precipitation 0.00 in - - ()
Sea Level Pressure  
Sea Level Pressure 29.72 in    
Wind  
Wind Speed 4 mph ()    
Max Wind Speed 14 mph    
Max Gust Speed -    
Visibility 6.9 miles    
Events      
Averages and records for this station are not official NWS values.
T = Trace of Precipitation, MM = Missing Value Source: Averaged Metar Reports

Daily Weather History Graph

Daily Weather History Graph

Search for Another Location

Airport or City:

Trip Planner

Search our weather history database for the weather conditions in past years. The results will help you decide how hot, cold, wet, or windy it might be!

Date:

Astronomy

Sep. 18, 2013 Rise Set
Actual Time 6:16 AM CEST 6:39 PM CEST
Civil Twilight 5:47 AM CEST 7:09 PM CEST
Nautical Twilight 5:12 AM CEST 7:44 PM CEST
Astronomical Twilight 4:36 AM CEST 8:19 PM CEST
Moon 5:52 PM CEST (9/18) 4:56 AM CEST (9/18)
Length of Visible Light 13h 22m
Length of Day
12h 23m
Waxing Gibbous, 99% of the Moon is Illuminated
Sep 18
Waxing Gibbous
Sep 19
Full
Sep 27
Last Quarter
Oct 5
New
Oct 12
First Quarter

Hourly Weather History & Observations

Time (CEST) Temp. Windchill Dew Point Humidity Pressure Visibility Wind Dir Wind Speed Gust Speed Precip Events Conditions
12:00 AM 46.4 °F 44.3 °F 44.6 °F 93% 29.77 in 6.2 mi SSW 4.6 mph - N/A   Mostly Cloudy
12:30 AM 46.4 °F 45.2 °F 42.8 °F 87% 29.77 in 6.2 mi South 3.5 mph - N/A   Mostly Cloudy
1:00 AM 46.4 °F 45.2 °F 42.8 °F 87% 29.77 in 6.2 mi SSW 3.5 mph - N/A   Mostly Cloudy
1:30 AM 46.4 °F 45.2 °F 44.6 °F 93% 29.77 in 6.2 mi SSW 3.5 mph - N/A   Mostly Cloudy
2:00 AM 46.4 °F 44.3 °F 44.6 °F 93% 29.77 in - SSW 4.6 mph - N/A   Clear
2:30 AM 46.4 °F 45.2 °F 44.6 °F 93% 29.77 in - South 3.5 mph - N/A   Clear
3:00 AM 46.4 °F 45.2 °F 44.6 °F 93% 29.77 in - South 3.5 mph - N/A   Clear
3:30 AM 46.4 °F 45.2 °F 44.6 °F 93% 29.77 in - South 3.5 mph - N/A   Clear
4:00 AM 46.4 °F 45.2 °F 44.6 °F 93% 29.77 in - South 3.5 mph - N/A   Clear
4:30 AM 44.6 °F - 42.8 °F 93% 29.74 in - South 2.3 mph - N/A   Clear
5:00 AM 44.6 °F 41.4 °F 42.8 °F 93% 29.74 in - Variable 5.8 mph - N/A   Clear
5:30 AM 44.6 °F - 42.8 °F 93% 29.74 in - South 2.3 mph - N/A   Clear
6:00 AM 44.6 °F 43.1 °F 42.8 °F 93% 29.74 in - South 3.5 mph - N/A   Clear
6:30 AM 44.6 °F 43.1 °F 42.8 °F 93% 29.74 in - South 3.5 mph - N/A   Clear
7:00 AM 44.6 °F - 42.8 °F 93% 29.74 in - Variable 2.3 mph - N/A   Clear
7:30 AM 46.4 °F 45.2 °F 44.6 °F 93% 29.74 in - South 3.5 mph - N/A   Clear
8:00 AM 50.0 °F - 44.6 °F 82% 29.74 in - SSW 3.5 mph - N/A   Clear
8:30 AM 50.0 °F - 44.6 °F 82% 29.74 in - SSW 3.5 mph - N/A   Clear
9:00 AM 53.6 °F - 46.4 °F 77% 29.77 in - SW 3.5 mph - N/A   Clear
9:30 AM 55.4 °F - 46.4 °F 72% 29.77 in - SSE 1.2 mph - N/A   Clear
10:00 AM 57.2 °F - 46.4 °F 67% 29.74 in 6.2 mi Variable 4.6 mph - N/A   Partly Cloudy
10:30 AM 59.0 °F - 44.6 °F 59% 29.74 in 6.2 mi West 5.8 mph - N/A   Scattered Clouds
11:00 AM 59 °F - 42 °F 42% 29.75 in 12 mi NW 8.9 mph - -   Partly Cloudy
11:00 AM 59.0 °F - 42.8 °F 55% 29.74 in 6.2 mi NW 9.2 mph - N/A   Scattered Clouds
11:30 AM 60.8 °F - 42.8 °F 52% 29.74 in 6.2 mi NW 5.8 mph - N/A   Scattered Clouds
12:00 PM 59.0 °F - 41.0 °F 51% 29.74 in 6.2 mi WNW 6.9 mph - N/A   Scattered Clouds
12:30 PM 60.8 °F - 41.0 °F 48% 29.74 in 6.2 mi West 5.8 mph - N/A   Scattered Clouds
1:00 PM 62.6 °F - 41.0 °F 45% 29.74 in 6.2 mi NW 8.1 mph - N/A   Scattered Clouds
1:30 PM 60.8 °F - 41.0 °F 48% 29.71 in 6.2 mi NW 4.6 mph - N/A   Scattered Clouds
2:00 PM 64.4 °F - 41.0 °F 42% 29.71 in 6.2 mi Variable 1.2 mph - N/A   Scattered Clouds
2:30 PM 64.4 °F - 42.8 °F 45% 29.71 in 6.2 mi Variable 3.5 mph - N/A   Scattered Clouds
3:00 PM 62.6 °F - 39.2 °F 42% 29.71 in 6.2 mi Variable 2.3 mph - N/A   Mostly Cloudy
3:30 PM 62.6 °F - 41.0 °F 45% 29.71 in 6.2 mi Variable 2.3 mph - N/A   Partly Cloudy
4:00 PM 62.6 °F - 41.0 °F 45% 29.68 in 6.2 mi West 3.5 mph - N/A   Partly Cloudy
4:30 PM 64.4 °F - 41.0 °F 42% 29.68 in - WSW 4.6 mph - N/A   Clear
5:00 PM 63 °F - 40 °F 31% 29.69 in 12 mi Calm Calm - -   Mostly Cloudy
5:00 PM 62.6 °F - 41.0 °F 45% 29.68 in - Calm Calm - N/A   Clear
5:30 PM 62.6 °F - 42.8 °F 48% 29.68 in - Variable 2.3 mph - N/A   Clear
6:00 PM 62.6 °F - 46.4 °F 55% 29.68 in - SSE 3.5 mph - N/A   Clear
6:30 PM 60.8 °F - 46.4 °F 59% 29.68 in - SE 3.5 mph - N/A   Clear
7:00 PM 59.0 °F - 46.4 °F 63% 29.65 in - ESE 5.8 mph - N/A   Clear
7:30 PM 62.6 °F - 41.0 °F 45% 29.65 in - Variable 1.2 mph - N/A   Clear
8:00 PM 60.8 °F - 42.8 °F 52% 29.65 in - Variable 3.5 mph - N/A   Clear
8:30 PM 60.8 °F - 41.0 °F 48% 29.65 in - SSE 6.9 mph - N/A   Clear
9:00 PM 60.8 °F - 39.2 °F 45% 29.65 in - SSE 11.5 mph - N/A   Clear
9:30 PM 60.8 °F - 41.0 °F 48% 29.65 in - SSE 11.5 mph - N/A   Clear
10:00 PM 62.6 °F - 39.2 °F 42% 29.65 in - SSE 9.2 mph - N/A   Clear
10:30 PM 62.6 °F - 39.2 °F 42% 29.65 in - SSE 13.8 mph - N/A   Clear
11:00 PM 62 °F - 40 °F 33% 29.66 in 9 mi SSE 8.9 mph - -   Mostly Cloudy
11:00 PM 62.6 °F - 39.2 °F 42% 29.65 in - SSE 10.4 mph - N/A   Clear
11:30 PM 60.8 °F - 41.0 °F 48% 29.65 in - South 6.9 mph - N/A   Clear